FENGYUN 1C DEB, 29885

Orbit data source: Space-Track

FENGYUN 1C DEB, 29885 is space debris in SSO originally from a launch on Mon, 10 May 1999 UTC launched from the Taiyaun Space Center, China (TSC). Fengyun 1C debris stems from the Chinese weather satellite Fengyun-1C, which was intentionally destroyed by a Chinese anti-satellite missile in 2007. This event dramatically increased the amount of space debris, with thousands of trackable fragments posing hazards to satellites and human spaceflight. The Fengyun 1C debris cloud has become a focal point in discussions about space sustainability and the need for international regulations to prevent the creation of new debris.

Loading next visibility...
Identifier
29885, 1999-025GF
Orbit
SSO
Country
Flag of CNCN / PRC
Related business
Manufacturer
Unknown
Mission
Spacecraft
Bus & Motor
Unknown
Mass
Unknown
Launch date (UTC)
1999-05-10 (27 years ago)
Launch vehicle
Unknown
Launch site
Taiyaun Space Center, China (TSC)
Object type
Payload
Rocket body
Debris
Shape & HBR
Unknown shape, 0.1 m
Radar Cross Section
Medium (>0.1 m² and <1 m²)

Expand to show TLE details & history
Last TLE update: 10 hours ago

TLE from 10 hours ago
0 FENGYUN 1C DEB
1 29885U 99025GF  26254.25663725  .00000141  00000-0  88706-4 0  9991
2 29885  98.3657 176.8255 0119158  99.8451  52.2871 14.13729996 13085
Epoch: 2026-09-11T06:09Z
TLE epoch observation values (Epoch: 2026-09-11T06:09:33.458Z)
Latitude
26.50727°
Longitude
-81.66294°
Altitude
797.841 km
Speed
7.484 km/s
True Right ascension
00h 04m 02s
True Declination
26° 22' 15"
Sunlit
Object was in full shadow at epoch
Visualization orbit readout
Latitude
Unknown
Longitude
Unknown
Altitude
Unknown
Speed
Unknown
Apparent Right ascension
Unknown
Apparent Declination
Unknown
Sunlit
N/A
Visualization observer readout
Local Sidereal Time
08:24:33
Azimuth
Unknown
Elevation
Unknown
Doppler factor
Unknown
Orbital elements
Apogee altitude
929.841 km
Perigee altitude
757.731 km
Semi-major axis
7,221.923 km
Eccentricity
0.01192
Inclination
98.3657°
RAAN
176.8255°
Arg. of periapsis
99.8451°
True anomaly
53.37715°
Mean anomaly
52.2871°
Eccentric anomaly
52.83114°
Mean motion
3.53642 °/min
Orbital period
101.8 mins
BSTAR
0.000088706
Loading maneuver chart data...
Computing Atmospheric mass density...
Loading historical data...
Loading historical data...
Loading historical data...
Loading historical data...
Loading historical data...
Loading historical data...
Loading historical data...

Documentation

Showing up to 5 results
|